Satellite: NO-44
Catalog number: 26931
Epoch time:      11076.53618721
Element set:     704
Inclination:      067.0516 deg
RA of node:       219.6807 deg
Eccentricity:    0.0007087
Arg of perigee:   269.8886 deg
Mean anomaly:     090.1372 deg
Mean motion:   14.29641311 rev/day
Decay rate:       1.82e-06 rev/day^2
Epoch rev:           49382
Checksum:              316

Satellite: SO-50
Catalog number: 27607
Epoch time:      11075.58351555
Element set:    0417
Inclination:      064.5575 deg
RA of node:       249.0516 deg
Eccentricity:    0.0062469
Arg of perigee:   342.5459 deg
Mean anomaly:     017.3488 deg
Mean motion:   14.71667306 rev/day
Decay rate:       3.12e-06 rev/day^2
Epoch rev:           44246
Checksum:              316

Satellite: CO-55
Catalog number: 27844
Epoch time:      11076.55707121
Element set:      67
Inclination:      098.7083 deg
RA of node:       086.5854 deg
Eccentricity:    0.0010514
Arg of perigee:   100.8633 deg
Mean anomaly:     259.3740 deg
Mean motion:   14.20779314 rev/day
Decay rate:       2.04e-06 rev/day^2
Epoch rev:           39990
Checksum:              308

Satellite: CO-57
Catalog number: 27848
Epoch time:      11076.55680751
Element set:      15
Inclination:      098.7140 deg
RA of node:       085.7439 deg
Eccentricity:    0.0010395
Arg of perigee:   104.7770 deg
Mean anomaly:     255.4565 deg
Mean motion:   14.20562899 rev/day
Decay rate:       1.67e-06 rev/day^2
Epoch rev:           39985
Checksum:              344

Satellite: AO-51
Catalog number: 28375
Epoch time:      11076.64661291
Element set:     921
Inclination:      098.0888 deg
RA of node:       059.9482 deg
Eccentricity:    0.0084609
Arg of perigee:   348.4171 deg
Mean anomaly:     011.5075 deg
Mean motion:   14.40732639 rev/day
Decay rate:       1.12e-06 rev/day^2
Epoch rev:           35288
Checksum:              324

Satellite: CP3
Catalog number: 31129
Epoch time:      11075.69925485
Element set:    0823
Inclination:      097.9097 deg
RA of node:       105.2265 deg
Eccentricity:    0.0103427
Arg of perigee:   108.1693 deg
Mean anomaly:     253.0758 deg
Mean motion:   14.52398283 rev/day
Decay rate:       3.09e-06 rev/day^2
Epoch rev:           20741
Checksum:              311

Satellite: CO-65
Catalog number: 32785
Epoch time:      11075.64353004
Element set:    0940
Inclination:      097.8588 deg
RA of node:       141.2726 deg
Eccentricity:    0.0015987
Arg of perigee:   115.8204 deg
Mean anomaly:     244.4621 deg
Mean motion:   14.81867121 rev/day
Decay rate:       6.63e-06 rev/day^2
Epoch rev:           15583
Checksum:              316

Satellite: KKS-1
Catalog number: 33493
Epoch time:      11076.78377588
Element set:     403
Inclination:      098.1114 deg
RA of node:       204.1504 deg
Eccentricity:    0.0019448
Arg of perigee:   339.7244 deg
Mean anomaly:     020.3181 deg
Mean motion:   14.81410621 rev/day
Decay rate:      1.990e-05 rev/day^2
Epoch rev:           11598
Checksum:              291

Satellite: SOHLA-1
Catalog number: 33496
Epoch time:      11076.88226741
Element set:     360
Inclination:      098.0713 deg
RA of node:       187.6881 deg
Eccentricity:    0.0007513
Arg of perigee:   059.0752 deg
Mean anomaly:     301.1186 deg
Mean motion:   14.69570702 rev/day
Decay rate:       1.93e-06 rev/day^2
Epoch rev:           11507
Checksum:              297

Satellite: TISAT-1
Catalog number: 36799
Epoch time:      11076.89520938
Element set:     678
Inclination:      098.1112 deg
RA of node:       144.2162 deg
Eccentricity:    0.0014793
Arg of perigee:   208.5100 deg
Mean anomaly:     151.5190 deg
Mean motion:   14.80370567 rev/day
Decay rate:       9.24e-06 rev/day^2
Epoch rev:            3680
Checksum:              302

Satellite: STUDSAT
Catalog number: 36801
Epoch time:      11075.81871030
Element set:    0167
Inclination:      098.1148 deg
RA of node:       142.9757 deg
Eccentricity:    0.0013608
Arg of perigee:   200.6459 deg
Mean anomaly:     159.4203 deg
Mean motion:   14.80142020 rev/day
Decay rate:      3.278e-05 rev/day^2
Epoch rev:           03663
Checksum:              276

Satellite: RAX
Catalog number: 37223
Epoch time:      11076.46296103
Element set:    0111
Inclination:      071.9712 deg
RA of node:       241.1662 deg
Eccentricity:    0.0019162
Arg of perigee:   097.1868 deg
Mean anomaly:     263.1474 deg
Mean motion:   14.77281669 rev/day
Decay rate:      1.193e-05 rev/day^2
Epoch rev:           01734
Checksum:              288

Satellite: OOREOS
Catalog number: 37224
Epoch time:      11076.42207246
Element set:    1095
Inclination:      071.9712 deg
RA of node:       241.3960 deg
Eccentricity:    0.0017800
Arg of perigee:   096.5373 deg
Mean anomaly:     263.7815 deg
Mean motion:   14.76929834 rev/day
Decay rate:       8.68e-06 rev/day^2
Epoch rev:           01732
Checksum:              305

Satellite: NANOSALD
Catalog number: 37225
Epoch time:      11073.19059273
Element set:    0082
Inclination:      071.9764 deg
RA of node:       248.2839 deg
Eccentricity:    0.0026789
Arg of perigee:   057.9293 deg
Mean anomaly:     302.4366 deg
Mean motion:   14.81737623 rev/day
Decay rate:    1.09841e-03 rev/day^2
Epoch rev:           00796
Checksum:              331

